Home   Weather   Waltrop   Past weeks

Flag for Germany Past Weather in Waltrop, North Rhine-Westphalia, Germany — Yesterday and Last 2 Weeks

46 °F

Passing clouds.

Feels Like: 46 °F
Forecast: 41 / 51 °F
Wind: 2 mph from North

Location: Dortmund / Wickede

Current Time: Oct 26, 2016 at 12:49:17 AM

Latest Report: Oct 25, 2016 at 9:50 PM

Visibility: 4 mi

Pressure: 30.30 "Hg

Humidity: 87%

Dew Point: 43 °F

Location of WaltropLocation

Past Weather in Waltrop — Graph


Waltrop Temperature Yesterday

Maximum temperature yesterday: 48 °F (at 5:20 AM)
Minimum temperature yesterday: 45 °F (at 11:50 AM)
Average temperature yesterday: 47 °F

High & Low Weather Summary for the Past Weeks

High66 °F (Oct 16, 3:20 PM)100% (Oct 23, 7:50 AM)30.30 "Hg (Oct 23, 7:50 AM)
Low32 °F (Oct 23, 6:50 AM)40% (Oct 16, 3:20 PM)29.65 "Hg (Oct 15, 5:20 AM)
Average47 °F80%29.99 "Hg
* Reported Oct 10 9:20 PM — Oct 25 9:50 PM, Waltrop, Weather by CustomWeather, © 2016

Note: Actual official high and low records may vary slightly from our data, if they occured in-between our weather recording intervals... More about our weather records


Waltrop Weather History for the Previous 24 Hours

Scroll right to see more
Time TempWeatherWind HumidityBarometerVisibility
9:50 PM
Tue, Oct 25
46 °FPassing clouds.2 mph87%30.30 "Hg4 mi
9:20 PM46 °FPassing clouds.2 mph87%30.30 "Hg4 mi
8:50 PM46 °FFog.2 mph87%30.30 "Hg3 mi
8:20 PM46 °FFog.2 mph87%30.27 "Hg3 mi
7:50 PM46 °FPassing clouds.5 mph87%30.27 "Hg4 mi
7:20 PM46 °FPassing clouds.3 mph87%30.27 "Hg4 mi
6:50 PM46 °FFog.2 mph87%30.27 "Hg2 mi
6:20 PM46 °FFog.2 mph87%30.27 "Hg2 mi
5:50 PM46 °FFog.3 mph87%30.24 "Hg2 mi
5:20 PM46 °FFog.3 mph87%30.24 "Hg2 mi
4:50 PM46 °FFog.3 mph87%30.24 "Hg2 mi
4:20 PM46 °FPartly sunny.3 mph87%30.24 "Hg5 mi
3:50 PM46 °FPartly sunny.3 mph87%30.21 "Hg5 mi
3:20 PM48 °FPartly sunny.3 mph87%30.21 "Hg4 mi
2:50 PM46 °FPartly sunny.3 mph93%30.21 "Hg4 mi
2:20 PM46 °FPartly sunny.3 mph93%30.21 "Hg4 mi
1:50 PM46 °FFog.3 mph93%30.18 "Hg3 mi
1:20 PM46 °FDrizzle. Partly sunny.5 mph93%30.18 "Hg2 mi
12:50 PM46 °FFog.3 mph93%30.18 "Hg1 mi
12:20 PM46 °FFog.3 mph87%30.18 "Hg1 mi
11:57 AM45 °FDrizzle. Fog.5 mph93%30.18 "Hg1 mi
11:50 AM45 °FDrizzle. Fog.5 mph93%30.15 "Hg1 mi
11:20 AM46 °FDrizzle. Fog.6 mph87%30.15 "Hg1 mi
10:50 AM46 °FDrizzle. Fog.5 mph93%30.15 "Hg1 mi
10:20 AM46 °FDrizzle. Fog.5 mph93%30.15 "Hg1 mi
9:50 AM46 °FFog.5 mph93%30.12 "Hg2 mi
9:20 AM46 °FFog.5 mph93%30.12 "Hg2 mi
8:50 AM46 °FFog.6 mph100%30.12 "Hg2 mi
8:20 AM48 °FFog.3 mph94%30.09 "Hg2 mi
7:50 AM48 °FDrizzle. Fog.3 mph94%30.07 "Hg1 mi
7:20 AM48 °FDrizzle. Fog.5 mph94%30.07 "Hg1 mi
6:59 AM48 °FFog.3 mph94%30.07 "Hg0 mi
6:50 AM48 °FFog.3 mph94%30.04 "Hg0 mi
6:20 AM48 °FFog.3 mph94%30.04 "Hg0 mi
5:50 AM48 °FDrizzle. Fog.3 mph94%30.04 "Hg0 mi
5:20 AM48 °FDrizzle. Fog.2 mph94%30.04 "Hg0 mi
Weather by CustomWeather, © 2016

See weather overviewHow to use our weather pages